Simultaneous Nadir Overpasses (SNOs) Predictions

Prediction of SNOs between TERRA and METOP-C Satellite Orbit:

Table of predicted SNOs for the next 14.0 days since TLE Epoch: 5/27/2023
Index Date (TERRA) Time (TERRA) Lat,Lon (TERRA) SZA (TERRA ) Date (METOP-C) Time (METOP-C) Lat,Lon (METOP-C) SZA (METOP-C ) Distance(km) Time Diff (sec)
1 05/29/2023 05:47:15 -80.83, -54.06 119.18 05/29/2023 05:47:01 -80.82, -54.14 119.20 1.69 14
2 05/29/2023 06:36:36 80.86, 114.02 60.89 05/29/2023 06:37:40 80.86, 113.90 60.90 2.12 64
3 05/31/2023 21:08:47 80.80,-104.83 60.36 05/31/2023 21:07:58 80.80,-104.76 60.35 1.27 49
4 05/31/2023 21:58:08 -80.84, 63.29 119.57 05/31/2023 21:58:37 -80.83, 63.17 119.57 2.24 29
5 06/03/2023 13:19:39 80.82, 12.67 60.04 06/03/2023 13:19:33 80.82, 12.78 60.06 2.20 6
6 06/03/2023 14:09:00 -80.86,-179.16 119.88 06/03/2023 14:10:12 -80.86,-179.22 119.86 0.98 72
7 06/06/2023 04:41:10 -80.80, -37.89 120.30 06/06/2023 04:40:30 -80.80, -37.89 120.32 0.51 40
8 06/06/2023 05:30:29 80.85, 130.36 59.80 06/06/2023 05:31:07 80.85, 130.28 59.80 1.69 38
9 06/08/2023 20:02:51 80.41, -92.42 58.74 06/08/2023 20:01:37 80.51, -92.59 58.78 11.49 74



Historial Predications of SNOs between TERRA and METOP-C
